Location: Dead Woman Crossing
(43.5369°N, 106.3228°W)
Time: 07:27:40
(UTC+00:00)

M-CUBED/EXP-1 PRIME - Pass Details

Date: 07 July 2022
Orbit: 422 x 631 km, 101.7° (Epoch: 14 August)

Event Time Altitude Azimuth Distance (km) Brightness Sun altitude
Exits shadow 08:30:51 77° 343° (NNW) 467 ? -21.4°
Drops below altitude 10° 08:34:13 - 342° (NNW) 1,681 ? -21.1°
Sets 08:36:13 0° 342° (NNW) 2,549 ? -21.0°
